Concord, NH

4:41 AM EST on February 27, 2017 (GMT -0500)
Concord Municipal

Weather History for KCON - October, 2014

Change the Weather History Date:

Friday, October 24, 2014

  Actual Average Record
Temperature  
Mean Temperature 48 °F 45 °F  
Max Temperature 50 °F 58 °F 81 °F (1963)
Min Temperature 46 °F 33 °F 10 °F (1969)
Degree Days  
Heating Degree Days 17 20  
Month to date heating degree days 285 379  
Since 1 July heating degree days 506 614  
Cooling Degree Days 0 0  
Month to date cooling degree days 6 0  
Year to date cooling degree days 387 450  
Moisture  
Dew Point 44 °F    
Average Humidity 86    
Maximum Humidity 100    
Minimum Humidity 71    
Precipitation  
Precipitation 0.21 in 0.12 in 1.87 in (2009)
Month to date precipitation 4.37 3.14  
Year to date precipitation 37.67 32.79  
Snow  
Snow 0.00 in 0.00 in T in (1879)
Month to date snowfall 0.0 0.0  
Since 1 July snowfall 0.0 0.0  
Since 1 September snowfall 0.0 0.0  
Snow Depth 0.00 in    
Sea Level Pressure  
Sea Level Pressure 29.72 in    
Wind  
Wind Speed 9 mph (NW)    
Max Wind Speed 17 mph    
Max Gust Speed 22 mph    
Visibility 10 miles    
Events Rain    
T = Trace of Precipitation, MM = Missing Value Source: NWS Daily Summary

Daily Weather History Graph

Daily Weather History Graph

Search for Another Location

Airport or City:

Trip Planner

Search our weather history database for the weather conditions in past years. The results will help you decide how hot, cold, wet, or windy it might be!

Date:

Astronomy

Oct. 24, 2014 Rise Set
Actual Time 7:10 AM EDT 5:48 PM EDT
Civil Twilight 6:41 AM EDT 6:18 PM EDT
Nautical Twilight 6:08 AM EDT 6:51 PM EDT
Astronomical Twilight 5:35 AM EDT 7:24 PM EDT
Moon 7:47 AM EDT (10/24) 6:25 PM EDT (10/24)
Length of Visible Light 11h 36m
Length of Day
10h 38m
New Moon, 1% of the Moon is Illuminated
Oct 24
New Moon
Oct 30
First Quarter
Nov 6
Full
Nov 14
Last Quarter
Nov 22
New

Hourly Weather History & Observations

Time (EDT) Temp. Windchill Dew Point Humidity Pressure Visibility Wind Dir Wind Speed Gust Speed Precip Events Conditions
12:51 AM 50.0 °F - 46.0 °F 86% 29.72 in 10.0 mi NNW 4.6 mph - N/A   Overcast
1:51 AM 48.0 °F - 46.9 °F 96% 29.72 in 3.0 mi NW 6.9 mph - 0.04 in Rain Rain
2:36 AM 48.9 °F - 48.0 °F 97% 29.70 in 10.0 mi NW 5.8 mph - 0.07 in   Overcast
2:51 AM 48.9 °F - 48.0 °F 97% 29.70 in 10.0 mi NNW 5.8 mph - 0.07 in Rain Light Rain
3:26 AM 48.9 °F - 48.0 °F 97% 29.70 in 9.0 mi NW 8.1 mph - 0.01 in Rain Light Rain
3:51 AM 48.0 °F - 46.9 °F 96% 29.71 in 8.0 mi NW 9.2 mph - 0.02 in Rain Light Rain
4:51 AM 46.9 °F - 46.0 °F 97% 29.71 in 10.0 mi NNW 6.9 mph - 0.07 in Rain Light Rain
5:51 AM 46.9 °F - 46.0 °F 97% 29.72 in 10.0 mi NNW 8.1 mph - 0.01 in   Overcast
6:51 AM 46.9 °F - 46.0 °F 97% 29.72 in 10.0 mi NW 6.9 mph - N/A   Overcast
7:51 AM 46.9 °F - 45.0 °F 93% 29.73 in 10.0 mi NW 6.9 mph - N/A   Overcast
8:51 AM 46.9 °F - 45.0 °F 93% 29.73 in 10.0 mi NW 6.9 mph - N/A   Overcast
9:49 AM 48.2 °F - 44.6 °F 87% 29.74 in 10.0 mi NNW 10.4 mph - 0.00 in   Overcast
9:51 AM 48.9 °F - 45.0 °F 86% 29.74 in 10.0 mi NNW 10.4 mph - 0.00 in   Overcast
10:29 AM 48.9 °F - 44.1 °F 83% 29.73 in 10.0 mi NNW 12.7 mph - N/A   Overcast
10:51 AM 48.9 °F - 44.1 °F 83% 29.73 in 10.0 mi NW 12.7 mph - N/A   Overcast
11:10 AM 50.0 °F - 44.1 °F 80% 29.73 in 10.0 mi NW 10.4 mph - N/A   Overcast
11:47 AM 48.2 °F - 44.6 °F 87% 29.73 in 10.0 mi NW 8.1 mph - 0.00 in Rain Light Rain
11:51 AM 48.9 °F - 45.0 °F 86% 29.73 in 10.0 mi NW 10.4 mph - 0.00 in Rain Light Rain
12:09 PM 48.9 °F - 45.0 °F 86% 29.72 in 10.0 mi NW 11.5 mph - 0.00 in Rain Light Rain
12:20 PM 50.0 °F - 46.0 °F 86% 29.72 in 10.0 mi NW 10.4 mph - 0.00 in Rain Light Rain
12:51 PM 48.9 °F - 45.0 °F 86% 29.72 in 10.0 mi NW 10.4 mph - 0.00 in Rain Light Rain
1:51 PM 50.0 °F - 45.0 °F 83% 29.71 in 10.0 mi WNW 12.7 mph - 0.00 in   Overcast
2:51 PM 48.9 °F - 43.0 °F 80% 29.70 in 10.0 mi WNW 15.0 mph - N/A   Overcast
3:51 PM 48.9 °F - 42.1 °F 77% 29.70 in 10.0 mi WNW 9.2 mph - N/A   Overcast
4:51 PM 48.9 °F - 41.0 °F 74% 29.70 in 10.0 mi NW 10.4 mph 21.9 mph N/A   Overcast
5:51 PM 48.0 °F - 39.9 °F 74% 29.72 in 10.0 mi NW 11.5 mph 20.7 mph N/A   Overcast
6:51 PM 46.9 °F - 39.9 °F 77% 29.74 in 10.0 mi NW 10.4 mph - N/A   Overcast
7:36 PM 46.0 °F 41.4 °F 39.9 °F 79% 29.73 in 10.0 mi NW 9.2 mph - N/A   Mostly Cloudy
7:51 PM 46.0 °F 41.9 °F 39.9 °F 79% 29.75 in 10.0 mi NW 8.1 mph - N/A   Mostly Cloudy
8:51 PM 46.0 °F 42.5 °F 39.9 °F 79% 29.75 in 10.0 mi WNW 6.9 mph - N/A   Overcast
9:14 PM 46.0 °F 42.5 °F 41.0 °F 83% 29.74 in 10.0 mi WNW 6.9 mph - N/A   Mostly Cloudy
9:51 PM 46.9 °F - 41.0 °F 80% 29.75 in 10.0 mi NW 8.1 mph - N/A   Overcast
10:51 PM 46.9 °F - 41.0 °F 80% 29.75 in 10.0 mi NW 6.9 mph - N/A   Overcast
11:51 PM 46.9 °F - 41.0 °F 80% 29.75 in 10.0 mi WNW 4.6 mph - N/A   Overcast